Regional Weather Roundup
Issued by NWS

Home | Current Version | Previous Version | Graphics & Text | Print | Product List | Glossary On
Versions: 1 2 3 4 5 6 7 8 9 10 11 12 13 14 15 16 17 18 19 20 21 22 23 24 25 26 27 28 29 30 31 32 33 34 35 36 37 38 39 40 41 42 43 44 45 46 47 48 49 50
673
ASUS45 KBOI 200610
RWRID

IDAHO REGIONAL WEATHER ROUNDUP
NATIONAL WEATHER SERVICE BOISE ID
1100 PM MST SUN FEB 19 2017

NOTE: "FAIR" INDICATES FEW OR NO CLOUDS BELOW 12000 FEET
WITH NO SIGNIFICANT WEATHER AND/OR OBSTRUCTIONS TO VISIBILITY

IDZ012-014-200700-
SOUTHWEST IDAHO


CITY           SKY/WX    TMP DP  RH WIND       PRES   REMARKS
BOISE          MOCLDY    41  34  76 SE12      29.79R
CALDWELL       MOCLDY    40  36  86 E6        29.80R
MOUNTAIN HOME  MOCLDY    38  38 100 SE13      29.81R WCI  30
$$

IDZ016-017-200700-
SOUTHCENTRAL IDAHO


CITY           SKY/WX    TMP DP  RH WIND       PRES   REMARKS
BURLEY         MOCLDY    35  30  82 NE5       29.85R WCI  31
JEROME           N/A    N/A N/A N/A MISG      29.85R
TWIN FALLS     CLOUDY    38  29  70 CALM      29.83R
$$

IDZ019>023-200700-
SOUTHEAST IDAHO


CITY           SKY/WX    TMP DP  RH WIND       PRES   REMARKS
IDAHO FALLS    CLOUDY    33  31  92 S12       29.89R WCI  24
POCATELLO      CLEAR     30  27  88 N10       29.89R WCI  21
REXBURG        CLOUDY    34  28  79 SW5       29.87R WCI  30
$$

IDZ006-010-011-018-031-032-200700-
CENTRAL IDAHO MOUNTAINS


CITY           SKY/WX    TMP DP  RH WIND       PRES   REMARKS
MCCALL         CLOUDY    31  28  89 CALM      29.73S
HAILEY         MOCLDY    30  30 100 NW9       29.87S WCI  22
STANLEY          N/A     28  26  92 SE9       29.79R WCI  19
SALMON         CLOUDY    37  28  70 SW12      29.79R WCI  30
CHALLIS        CLOUDY    33  27  78 S10       29.80S WCI  25
$$

IDZ002-004-006-007-026-200700-
NORTHERN IDAHO


CITY           SKY/WX    TMP DP  RH WIND       PRES   REMARKS
LEWISTON       MOCLDY    40  35  83 E10       29.70S WCI  33
LOWELL           N/A     35  33  92 CALM      29.78R
COEUR D`ALENE  PTCLDY    29  28  96 E5        29.69S WCI  24
MULLAN PASS    MOCLDY    23  22  96 S6        29.64R FOG     WCI  16
$$




USA.gov is the U.S. government's official web portal to all federal, state and local government web resources and services.